[[{"header":{"parameterUnit":"m.s-1","parameterCategory":1,"la1":30.2992,"la2":30.254,"lo1":-89.0895,"lo2":-89.0443,"dy":0.0025,"dx":0.0025,"nx":19,"ny":19,"refTime":"2026-04-12T21:00:00:Z","depth":0,"parameterNumber":2,"parameterNumberName":"U-component_of_WINDS"},"data":[0,0,0,-4.882,-4.8822,-4.8885,-4.8885,-4.8982,-4.8983,0,0,0,0,0,0,0,0,0,0,0,-4.8811,-4.8812,-4.882,-4.8822,-4.8884,-4.8885,-4.8981,-4.8983,0,0,0,0,0,0,0,0,0,0,0,-4.8811,-4.8812,-4.8813,-4.8822,-4.8884,-4.8885,-4.8981,-4.8928,0,0,0,0,0,0,0,0,0,0,-4.8864,-4.8866,-4.8812,-4.8813,-4.8823,-4.8884,-4.8885,-4.8925,-4.8931,-4.896,0,-4.8989,0,-4.8988,-4.899,-4.8991,0,0,0,-4.8814,-4.8861,-4.8869,-4.8814,-4.8823,-4.8884,-4.8854,-4.8928,-4.8935,-4.8969,-4.899,-4.8993,-4.8989,-4.8991,-4.8991,-4.9186,-4.9187,0,0,-4.8811,-4.8828,-4.8864,-4.8874,-4.8865,-4.8852,-4.8856,-4.8932,-4.8957,-4.899,-4.8995,-4.8991,-4.8992,-4.8993,-4.9184,-4.9186,0,0,0,-4.8806,-4.8826,-4.8832,-4.887,-4.888,-4.8854,-4.8859,-4.8953,-4.8954,-4.8996,-4.8992,-4.8992,-4.8994,-4.9183,-4.9185,-4.9263,0,0,0,-4.8803,-4.8823,-4.8831,-4.8842,-4.8879,-4.8918,-4.8878,-4.8948,-4.8956,-4.8991,-4.8992,-4.8995,-4.9182,-4.9184,-4.9258,-4.9296,0,0,0,-4.8804,-4.8823,-4.8835,-4.8842,-4.887,-4.8916,-4.892,-4.895,-4.8954,-4.8991,-4.8995,-4.9181,-4.9184,-4.9253,-4.9289,-4.9352,0,0,0,-4.8809,-4.8904,-4.8837,-4.8941,-4.887,-4.8965,-4.892,-4.899,-4.903,-4.8993,-4.9182,-4.9185,-4.9252,-4.9284,-4.9347,-4.9406,-4.9433,0,0,-4.8938,-4.892,-4.898,-4.8922,-4.9033,-4.8954,-4.9076,-4.9097,-4.9085,-4.9153,-4.9157,-4.926,-4.9288,-4.9351,-4.9582,-4.9604,0,0,0,-4.9026,-4.9069,-4.9095,-4.9135,-4.9154,-4.9174,-4.9174,-4.9183,-4.924,-4.9123,-4.93,-4.9317,-4.9353,-4.938,-4.9398,-4.9428,-4.9199,-4.9199,-4.9198,-4.923,-4.9211,-4.9309,-4.9298,-4.9338,-4.9339,-4.9369,-4.938,-4.9348,-4.9391,-4.941,-4.9553,-4.9586,-4.9599,-4.963,-4.9442,-4.9442,-4.9442,-4.9442,-4.9416,-4.9473,-4.9431,-4.9511,-4.949,-4.9557,-4.9563,-4.9539,-4.9598,-4.9536,-4.9567,-4.9499,-4.9623,-4.9649,-4.9448,-4.9447,-4.9446,-4.9446,-4.9446,-4.9545,-4.9569,-4.9579,-4.9636,-4.9682,-4.9669,-4.9728,-4.9708,-4.9689,-4.972,-4.9737,-4.9736,-4.973,-4.973,-4.9731,-4.9731,-4.9732,-4.9732,-4.9732,-4.9674,-4.9683,-4.9735,-4.9766,-4.979,-4.9819,-4.9823,-4.9846,-4.9866,-4.9847,-4.9847,-4.981,-4.964,-4.9596,-4.974,-4.9738,-4.9737,-4.9737,-4.9736,-4.9865,-4.9819,-4.99,-4.9924,-4.9959,-5.0007,-4.9982,-5.0031,-5.0047,-5.0078,-5.0036,-4.9915,-4.9894,-4.9879,-4.9843,-5.0041,-5.0041,-5.0041,-5.0041,-4.9972,-4.9961,-5.004,-5.008,-5.0117,-5.0104,-5.0196,-5.0202,-5.0201,-5.021,-5.0179,-5.013,-5.0116,-5.0104,-5.0084,-5.005,-5.0296,-5.0296,-5.0297,-5.0088,-5.008,-5.0162,-5.016,-5.0187,-5.0211,-5.0297,-5.0345,-5.0335,-5.0307,-5.0216,-5.0206,-5.0126,-5.0102,-5.0068,-5.0038,-4.9974,0,0]},{"header":{"parameterUnit":"m.s-1","parameterCategory":1,"la1":30.2992,"la2":30.254,"lo1":-89.0895,"lo2":-89.0443,"dy":0.0025,"dx":0.0025,"nx":19,"ny":19,"refTime":"2026-04-12T21:00:00:Z","depth":0,"parameterNumber":3,"parameterNumberName":"V-component_of_WINDS"},"data":[0,0,0,3.0995,3.0993,3.088,3.0879,3.0744,3.0743,0,0,0,0,0,0,0,0,0,0,0,3.1036,3.1035,3.0995,3.0993,3.088,3.0879,3.0744,3.0743,0,0,0,0,0,0,0,0,0,0,0,3.1036,3.1035,3.1035,3.0992,3.088,3.0879,3.0745,3.0826,0,0,0,0,0,0,0,0,0,0,3.0934,3.0979,3.1036,3.1035,3.0992,3.088,3.0879,3.083,3.0821,3.08,0,3.0785,0,3.0762,3.0735,3.0734,0,0,0,3.0987,3.0987,3.095,3.1035,3.0991,3.088,3.0929,3.0825,3.0815,3.0789,3.0783,3.0777,3.076,3.0734,3.0733,3.0639,3.0639,0,0,3.0993,3.1019,3.0957,3.0944,3.0964,3.0933,3.0925,3.0819,3.0813,3.0782,3.0774,3.0758,3.0733,3.0732,3.0639,3.0639,0,0,0,3.1015,3.1023,3.0989,3.095,3.0929,3.0929,3.0921,3.0818,3.0805,3.0773,3.0756,3.0733,3.0731,3.0639,3.0639,3.0657,0,0,0,3.1018,3.1036,3.0992,3.1007,3.0931,3.0872,3.0923,3.0812,3.0799,3.0757,3.0732,3.073,3.0639,3.0639,3.0657,3.0661,0,0,0,3.1041,3.1039,3.1025,3.1008,3.0961,3.0873,3.0854,3.0809,3.0789,3.0734,3.0729,3.0639,3.0639,3.0657,3.0661,3.0645,0,0,0,3.1071,3.1041,3.1026,3.0986,3.0962,3.0886,3.0854,3.0796,3.0751,3.0732,3.0639,3.0639,3.0657,3.066,3.0645,3.0636,3.0635,0,0,3.1047,3.1039,3.1013,3.0996,3.0931,3.0902,3.0838,3.077,3.074,3.0674,3.0671,3.0657,3.0661,3.0645,3.062,3.062,0,0,0,3.1014,3.0996,3.0973,3.0933,3.0883,3.0841,3.0781,3.0757,3.07,3.0712,3.0646,3.0647,3.0637,3.0632,3.0631,3.0621,3.0638,3.0638,3.0638,3.1015,3.0982,3.0937,3.0891,3.0852,3.0793,3.0759,3.0716,3.069,3.0675,3.0655,3.0645,3.064,3.0639,3.0629,3.0648,3.0648,3.0648,3.0648,3.0977,3.0946,3.0917,3.0864,3.0829,3.0783,3.0726,3.071,3.0662,3.0656,3.0645,3.0642,3.0639,3.0629,3.0649,3.0649,3.0649,3.0649,3.0649,3.0974,3.0953,3.0926,3.0867,3.0825,3.0779,3.0735,3.0704,3.0673,3.0663,3.0639,3.0638,3.0634,3.0654,3.0654,3.0654,3.0654,3.0654,3.0654,3.0981,3.095,3.0918,3.0866,3.0838,3.0796,3.0739,3.071,3.0669,3.0649,3.0649,3.0626,3.0646,3.0652,3.0653,3.0653,3.0653,3.0653,3.0653,3.0954,3.0956,3.0907,3.0879,3.0816,3.0777,3.0739,3.0683,3.0654,3.0634,3.0614,3.0634,3.0622,3.0623,3.0627,3.0622,3.0622,3.0622,3.0622,3.0951,3.0943,3.0888,3.0845,3.08,3.0762,3.0708,3.0665,3.0619,3.0599,3.0596,3.0599,3.0601,3.0588,3.0589,3.0593,3.0578,3.0578,3.0578,3.0933,3.092,3.088,3.0838,3.0788,3.0745,3.0694,3.0646,3.0595,3.0576,3.0583,3.0585,3.0591,3.0594,3.0574,3.0576,3.0582,0,0]}]]